Location: The Saddle
(36.8333°N, 80.3417°W)
Time: 12:28:10
(UTC-04:00)

A-11 Canister half - Pass Details

Date: 13 December 2023
Orbit: 1524 x 1684 km, 47.3° (Epoch: 02 October)

Event Time Altitude Azimuth Distance (km) Brightness Sun altitude
Rises 20:14:03 0° 286° (WNW) 4,935 12.5 -36.8°
Reaches altitude 10° 20:17:27 10° 292° (WNW) 3,949 11.8 -37.5°
Enters shadow 20:26:28 46° 354° (N) 2,139 9.6 -39.3°
Maximum altitude 20:27:09 47° 4° (N) 2,124 - -39.4°
Drops below altitude 10° 20:36:44 10° 77° (ENE) 3,894 - -41.4°
Sets 20:40:03 0° 83° (E) 4,861 - -42.0°
